{"data":{"norad_id":52265,"intl_designator":"2022-041E","name":"STARLINK-3740","alt_names":[],"object_type":"PAYLOAD","status":"ACTIVE","operator":null,"country":"US","launch_date":"2022-04-21","launch_site_code":"AFETR","launch_vehicle":null,"mission":null,"orbit_class":"UNKNOWN","rcs_meters":null,"size_class":null,"mass_kg":null,"dimensions":null,"purposes":["comms"],"wikipedia_slug":null,"has_3d_model":false,"image_url":null,"decayed_at":null,"tle_current":{"epoch":"2026-09-19T17:29:31.268832Z","epoch_age_seconds":126139,"freshness":"FRESH","line1":"1 52265U 22041E   26262.72883413  .00002305  00000+0  79358-4 0  9998","line2":"2 52265  53.1600 303.4361 0001146  57.7797 302.3317 15.34394639243859","mean_motion":15.34394639,"eccentricity":0.0001146,"inclination_deg":53.16,"raan_deg":303.4361,"arg_perigee_deg":57.7797,"mean_anomaly_deg":302.3317,"bstar":7.9358e-5,"rev_number":24385,"period_min":93.848085974706,"perigee_km":461.93521215771,"apogee_km":463.50313639285,"semimajor_km":6840.8561742753,"source":"CELESTRAK","updated_at":"2026-09-20T09:00:40.011487Z"}}}